Weather in Yepifan'

Russia / Tula Oblast     53°49′36″N   38°33′09″E
temp.,
°C
wind,
m/s
gust,
m/s
humid.,
%
clouds,
%
prec.,
mm/h
press.,
hPa
HPBL,
m
8 august, mon
mon800:00+21nnw3545100 0.0 1018106
03:00+17nw3689100 0.0 1019128
06:00+17nne369185 0.0 1019161
09:00+22nne227098 0.0 1020199
12:00+27e22486 0.0 1020716
15:00+29ese22355 0.0 10191895
18:00+29e22408 0.0 1018198
21:00+22ne235652 0.0 101955
9 august, tue
tue900:00+19ene61182100 0.0 1019223
03:00+17ne3691100 0.0 1019157
06:00+18ene2486100 0.0 1020177
09:00+21ene4569100 0.0 1019319
12:00+21ene4667100 0.1 1019308
15:00+25e454997 0.1 1018629
18:00+18nne5789100 1.8 1019184
21:00+17nnw2395100 6.0 1019122
10 august, wed
wed1000:00+17nne2498100 3.5 1019160
03:00+16n2497100 4.1 1019181
06:00+16nnw2496100 0.0 1020186
09:00+16nne4796100 0.2 1020279
12:00+18nne3490100 0.3 1021322
15:00+18ne2490100 0.6 1021294
18:00+20ne3781100 0.0 1021475
21:00+17nne3587100 0.0 102175
11 august, thu
thu1100:00+16nne498958 0.0 1022202
03:00+14nne4117977 0.0 1023254
06:00+13ne4108210 0.0 1024256
09:00+18ne576213 0.0 1024538
12:00+22ne55485 0.0 10241130
15:00+24ne44434 0.0 10231349
18:00+23ne34490 0.0 1023441
21:00+17nne34590 0.0 102447
12 august, fri
fri1200:00+15ne33650 0.0 102429
03:00+14ne23710 0.0 102527
06:00+14nne23750 0.0 102643
09:00+20ne235688 0.0 1026387
12:00+24nne3241100 0.0 10251252
15:00+25nne233678 0.0 10241569
18:00+24nne24455 0.0 1023215
21:00+19nne34571 0.0 102445